CZ-4B R/B (25732 NORAD) Tracking and Keplerian Element Data

This shows tracking and keplerian element data for the satellite.

Feedback or suggestion? Click here.




ElementValue
Catalog25732
NameCZ-4B R/B
Epoch Orbit17361
Epoch Day15.72819782
Epoch Year2022
RAAN57.3744
Inclination98.8771
Eccentricity0.0037368
Argument of Perigee5.4512
Mean Anonmoly100.6853
Mean Motion14.17711469
Decay Rate1E-07
L11 25732U 99025C 22015.72819782 .00000010 00000+0 26799-4 0 9995
L22 25732 98.8771 57.3744 0037368 5.4512 100.6853 14.17711469173617

Live tracking and technical data element details for CZ-4B R/B (NORAD 25732). CZ-4B R/B can be tracked NOW for your location showing map with azimuth and elevation plus other details from your city location.

Track the satellite on the map from your city or location and see movement details for azimuth, elevation, latitude, longitude, range, height, and movement on the map or in text.







IsCatalogInMostPopularTable: catalog: 25732, numindb: 368
Update: records affected: 1



GetName: 25732 CZ-4B R/B

Hit Count: updated at: Mon, 17 Jan 2022 00:15:57 GMT